This is the latest recevied weather packets stored in our database for station/object SP1BMW-13. If no packets are shown the sender has not sent any weather packets the latest 10 day(s).
| Time | Temp. | Humidity | Pressure | Rain* | Wind** | Luminosity | Snow |
|---|---|---|---|---|---|---|---|
| 1777708765 | 22.78° C | 36% | 1021.5 hPa | 0 mm | 0.45 m/s, 321° | 463 W/m² | - |
| 1777708705 | 22.22° C | 35% | 1021.8 hPa | 0 mm | 0.45 m/s, 264° | 461 W/m² | - |
| 1777708645 | 22.22° C | 35% | 1021.8 hPa | 0 mm | 0.89 m/s, 47° | 458 W/m² | - |
| 1777708588 | 22.22° C | 35% | 1021.7 hPa | 0 mm | 1.79 m/s, 220° | 454 W/m² | - |
| 1777708525 | 22.22° C | 36% | 1021.6 hPa | 0 mm | 1.34 m/s, 153° | 452 W/m² | - |
| 1777708465 | 22.22° C | 35% | 1021.7 hPa | 0 mm | 0.89 m/s, 43° | 451 W/m² | - |
| 1777708407 | 22.22° C | 36% | 1021.9 hPa | 0 mm | 0.45 m/s, 93° | 448 W/m² | - |
| 1777708354 | 22.22° C | 36% | 1021.7 hPa | 0 mm | 0.89 m/s, 128° | 447 W/m² | - |
| 1777708288 | 22.22° C | 36% | 1021.7 hPa | 0 mm | 0.89 m/s, 39° | 443 W/m² | - |
| 1777708225 | 22.22° C | 38% | 1021.9 hPa | 0 mm | 0.45 m/s, 34° | 441 W/m² | - |
| 1777708168 | 21.67° C | 37% | 1021.8 hPa | 0 mm | 0 m/s | 438 W/m² | - |
| 1777708105 | 21.67° C | 37% | 1021.8 hPa | 0 mm | 0.45 m/s, 54° | 436 W/m² | - |
| 1777708048 | 21.67° C | 37% | 1021.8 hPa | 0 mm | 0.89 m/s, 82° | 434 W/m² | - |
| 1777707985 | 21.67° C | 37% | 1021.7 hPa | 0 mm | 1.79 m/s, 37° | 431 W/m² | - |
| 1777707928 | 21.67° C | 38% | 1021.9 hPa | 0 mm | 0.89 m/s, 75° | 428 W/m² | - |
| 1777707865 | 21.67° C | 38% | 1021.9 hPa | 0 mm | 0.45 m/s, 23° | 425 W/m² | - |
| 1777707745 | 21.67° C | 37% | 1021.7 hPa | 0 mm | 0.89 m/s, 53° | 421 W/m² | - |
| 1777707688 | 21.67° C | 39% | 1021.9 hPa | 0 mm | 0.45 m/s, 53° | 418 W/m² | - |
| 1777707625 | 21.67° C | 38% | 1021.9 hPa | 0 mm | 0 m/s | 415 W/m² | - |
| 1777707565 | 21.67° C | 38% | 1021.9 hPa | 0 mm | 1.34 m/s, 40° | 412 W/m² | - |
| 1777707514 | 21.67° C | 37% | 1022.1 hPa | 0 mm | 0.45 m/s, 21° | 410 W/m² | - |
| 1777707450 | 21.11° C | 38% | 1022 hPa | 0 mm | 0.45 m/s, 138° | 406 W/m² | - |
| 1777707387 | 21.11° C | 40% | 1021.8 hPa | 0 mm | 0.45 m/s, 343° | 402 W/m² | - |
| 1777707325 | 21.11° C | 38% | 1022.1 hPa | 0 mm | 0.89 m/s, 140° | 398 W/m² | - |
| 1777707265 | 21.11° C | 38% | 1022.1 hPa | 0 mm | 0.89 m/s, 137° | 394 W/m² | - |
* Rain latest hour (hover to see other rain measurements)
** Current wind speed in m/s (hover to see current wind gust speed)